This is the latest recevied weather packets stored in our database for station/object K5IDL. If no packets are shown the sender has not sent any weather packets the latest 10 day(s).
| Time | Temp. | Humidity | Pressure | Rain* | Wind** | Luminosity | Snow |
|---|---|---|---|---|---|---|---|
| 1777935883 | 27.22° C | 57% | 1007.7 hPa | 0 mm | - | 48 W/m² | - |
| 1777935583 | 27.22° C | 56% | 1007.8 hPa | 0 mm | - | 45 W/m² | - |
| 1777935279 | 27.78° C | 56% | 1007.8 hPa | 0 mm | - | 45 W/m² | - |
| 1777934976 | 27.78° C | 56% | 1007.7 hPa | 0 mm | - | 48 W/m² | - |
| 1777934673 | 27.78° C | 56% | 1007.9 hPa | 0 mm | - | 59 W/m² | - |
| 1777934370 | 27.78° C | 56% | 1007.8 hPa | 0 mm | - | 63 W/m² | - |
| 1777934065 | 27.78° C | 56% | 1007.9 hPa | 0 mm | - | 64 W/m² | - |
| 1777933761 | 27.22° C | 56% | 1007.9 hPa | 0 mm | - | 52 W/m² | - |
| 1777933459 | 27.78° C | 56% | 1007.9 hPa | 0 mm | - | 53 W/m² | - |
| 1777933157 | 27.78° C | 56% | 1007.7 hPa | 0 mm | - | 42 W/m² | - |
| 1777932853 | 27.78° C | 54% | 1007.7 hPa | 0 mm | - | 45 W/m² | - |
| 1777932551 | 27.78° C | 55% | 1008 hPa | 0 mm | - | 58 W/m² | - |
| 1777932247 | 27.78° C | 55% | 1008 hPa | 0 mm | - | 74 W/m² | - |
| 1777931944 | 27.78° C | 55% | 1008.1 hPa | 0 mm | - | 78 W/m² | - |
| 1777931641 | 27.78° C | 55% | 1008.2 hPa | 0 mm | - | 68 W/m² | - |
| 1777931337 | 27.78° C | 55% | 1008.3 hPa | 0 mm | - | 49 W/m² | - |
| 1777931034 | 27.78° C | 55% | 1008.5 hPa | 0 mm | - | 70 W/m² | - |
| 1777930731 | 27.78° C | 54% | 1008.7 hPa | 0 mm | - | 71 W/m² | - |
| 1777930426 | 27.78° C | 55% | 1008.6 hPa | 0 mm | - | 77 W/m² | - |
| 1777930124 | 27.78° C | 55% | 1008.6 hPa | 0 mm | - | 100 W/m² | - |
| 1777929820 | 27.78° C | 54% | 1008.5 hPa | 0 mm | - | 113 W/m² | - |
| 1777929518 | 27.78° C | 54% | 1008.9 hPa | 0 mm | - | 189 W/m² | - |
| 1777929214 | 27.22° C | 55% | 1009 hPa | 0 mm | - | 74 W/m² | - |
| 1777928911 | 27.78° C | 54% | 1009 hPa | 0 mm | - | 76 W/m² | - |
| 1777928608 | 27.22° C | 54% | 1009.2 hPa | 0 mm | - | 117 W/m² | - |
* Rain latest hour (hover to see other rain measurements)
** Current wind speed in m/s (hover to see current wind gust speed)